Regional Weather Roundup
Issued by NWS Grand Forks, ND

Home | Current Version | Previous Version | Graphics & Text | Print | Product List | Glossary On
Versions: 1 2 3 4 5 6 7 8 9 10 11 12 13 14 15 16 17 18 19 20 21 22 23 24 25 26 27 28 29 30 31 32 33 34 35 36 37 38 39 40 41 42 43 44 45 46 47 48 49 50
000
ASUS43 KFGF 292110
RWRFGF
PRAIRIE TO PINES  WEATHER ROUNDUP
NATIONAL WEATHER SERVICE EASTERN NORTH DAKOTA/GRAND FORKS ND
400 PM CDT TUE JUL 29 2014

 **SATELLITE DATA USED TO AUGMENT SKY COVER AT AUTOMATED STATIONS**
 *****  WEATHER ACROSS EASTERN NORTH DAKOTA  *****

CITY           SKY/WX    TMP DP  RH WIND       PRES   REMARKS
GRAND FORKS    MOSUNNY   78  54  43 NE3       30.12F
GRAND FRKS AFB SUNNY     77  55  46 N8        30.14F
GRAND FRKS NWS   N/A     77 N/A N/A NW13        N/A
DEVILS LAKE    SUNNY     73  52  46 N12       30.15F
FARGO          PTSUNNY   80  53  39 N12       30.13S
WAHPETON ARPT  MOCLDY    77  46  33 N8        30.14F
$$

 ***** WEATHER ACROSS CENTRAL AND WESTERN NORTH DAKOTA  *****

CITY           SKY/WX    TMP DP  RH WIND       PRES   REMARKS
BISMARCK       MOSUNNY   78  54  43 N6        30.17F
MINOT          CLOUDY    74  59  59 NE6       30.16F
JAMESTOWN      MOSUNNY   77  53  43 N7        30.16F
MINOT AFB      LGT RAIN  71  65  81 NE10      30.16S
GARRISON         N/A     79  58  48 SE6       30.16F
WILLISTON      SUNNY     85  48  27 N12       30.17S
DICKINSON      MOSUNNY   82  51  34 NW7       30.16F
HETTINGER      MOSUNNY   82  49  31 VRB7      30.20F
$$

 *****  OTHER AIRPORT OBSERVATIONS IN OUR AREA  *****

CITY           SKY/WX    TMP DP  RH WIND       PRES   REMARKS
WALHALLA       FAIR      75  54  46 N8          N/A
GRAFTON AIRPOR FAIR      77  50  38 N10       30.13F
VALLEY CITY AR FAIR      77  48  36 NW6G16    30.16F
CANDO          FAIR      75  54  46 N6        30.17F
CAVALIER APRT  FAIR      77  50  38 N9        30.14S
GWINNER        PTCLDY    77  52  41 NW6       30.17F
ROLLA            N/A     73  55  53 N8        30.19F
 ***** THE ABOVE OBSERVATIONS ARE NON NWS ARE NOT QUALITY
       CONTROLLED AND MAY MIS-REPORT RAIN FOR SNOW...
$$

  *****  WEATHER ACROSS NORTHERN MINNESOTA  *****

CITY           SKY/WX    TMP DP  RH WIND       PRES   REMARKS
FLAG ISLAND    MOSUNNY   75  54  46 N8        30.06F
WARROAD        SUNNY     75  59  57 NW7G16    30.09F
ROSEAU         MOSUNNY   75  57  53 NW12      30.10S
HALLOCK        SUNNY     79  54  41 W9        30.12S
THF RVR FALLS  SUNNY     73  54  49 NW10      30.13S
BAUDETTE       SUNNY     77  55  46 NW13      30.08F
WASKISH        PTSUNNY   75  57  53 CALM      30.08F
CROOKSTON      MOSUNNY   75  55  50 NW8       30.14S
$$
  *****  WEATHER ACROSS CENTRAL AND WEST MINNESOTA  *****

CITY           SKY/WX    TMP DP  RH WIND       PRES   REMARKS
FOSSTON        MOSUNNY   73  57  56 NW13      30.13F
BEMIDJI        MOSUNNY   73  54  50 N10G20    30.11F
PARK RAPIDS    MOSUNNY   75  51  43 W12G20    30.11F
ELBOW LAKE     FAIR      74  55  51 NW6       30.14F
WADENA         MOSUNNY   73  55  53 NW9       30.12F
DETROIT LAKES  MOSUNNY   75  52  43 N12G25    30.15F
MOORHEAD       MOSUNNY   77  54  44 N8        30.13F
FERGUS FALLS   MOSUNNY   73  50  43 NW8       30.13F
MORRIS MN      MOSUNNY   75  54  46 NW7       30.14F
STAPLES        SUNNY     75  50  41 NW10G17   30.11F
$$
  *****  WEATHER ELSEWHERE ACROSS MINNESOTA  *****

CITY           SKY/WX    TMP DP  RH WIND       PRES   REMARKS
DULUTH         MOSUNNY   78  53  41 W17G24    30.02S
INTRNTL FALLS  RAIN      65  58  78 N13       30.06R
ELY            MOSUNNY   72  54  53 N8G24     30.01S
CLOQUET        MOSUNNY   75  52  43 W15G21    30.03F
WHEATON        SUNNY     72  55  56 W3        30.16F
BRAINERD       MOSUNNY   76  52  43 NW12      30.09F
HIBBING        CLOUDY    74  53  48 N12G26    30.05R
ALEXANDRIA     MOSUNNY   76  53  44 NW12      30.15F
SAINT CLOUD    MOSUNNY   79  53  40 NW9       30.08F
MINNEAPOLIS    MOSUNNY   80  55  42 W14       30.06F
$$

  *****  WEATHER ACROSS SOUTH DAKOTA  *****

CITY           SKY/WX    TMP DP  RH WIND       PRES   REMARKS
SIOUX FALLS    MOSUNNY   76  52  43 NW8       30.17F
BROOKINGS      NOT AVBL
WATERTOWN      SUNNY     73  51  46 N8        30.18F
HURON          SUNNY     78  51  38 NE10      30.16F
SISSETON         N/A     74  55  51 N7        30.15F
ABERDEEN       MOSUNNY   76  52  43 N7        30.16F
MITCHELL       MOSUNNY   78  52  40 MISG      30.17F
PIERRE         MOSUNNY   82  51  34 VRB7      30.16F
MOBRIDGE       MOSUNNY   81  54  39 NE10G20   30.16F
RAPID CITY     CLOUDY    71  57  61 SE9       30.24F
$$

  *****  SOME WEATHER IN NEARBY STATES *****

CITY           SKY/WX    TMP DP  RH WIND       PRES   REMARKS
GLASGOW MT     SUNNY     91  42  18 NE15      30.16F
GREAT FALLS MT SUNNY     91  43  18 NE8       30.17F
CHEYENNE WY    LGT RAIN  63  58  83 CALM      30.30R
SCOTTSBLUFF NE MOSUNNY   84  60  44 SE6       30.17F
OMAHA NE       PTSUNNY   79  52  38 NW10      30.15F
DES MOINES IA  MOSUNNY   80  52  37 NW7       30.12F
DAVENPORT IA   MOSUNNY   78  57  48 W12       30.08F
CHICAGO IL     PTSUNNY   78  51  38 NW13      30.00F
EAU CLAIRE WI  LGT RAIN  72  54  53 NW16      30.03F
LA CROSSE WI   MOSUNNY   82  55  39 W13       30.02F
$$

  *****  SOME NATIONAL WEATHER *****

CITY           SKY/WX    TMP DP  RH WIND       PRES   REMARKS
LA GUARDIA NY  MOSUNNY   75  51  43 NW9       29.89R
RALEIGH NC     MOSUNNY   81  57  43 CALM      29.94S
ATLANTA GA     MOSUNNY   82  58  43 NW14G20   29.98F
NEW ORLEANS LA PTSUNNY   88  66  48 VRB6      30.03F HX  90
OKLAHOMA CITY  PTSUNNY   91  55  29 SW8       30.13F
ALBUQUERQUE NM MOSUNNY   84  55  36 VRB3      30.21F
SALT LAKE CITY LGT RAIN  67  64  90 S5        30.18F
LOS ANGELES CA PTSUNNY   75  63  66 W12       30.00F
BOISE ID       MOSUNNY   95  50  21 W12       30.02F HX  92
SEATTLE WA     SUNNY     83  52  34 N9        30.13F
$$

*** WEATHER ACROSS MANITOBA...SASKATCHEWAN AND ONTARIO ***
                ***ONTARIO***

CITY           SKY/WX    TMP DP  RH WIND       PRES   REMARKS
GERALDTON      PTSUNNY   61  48  63 N6        30.00F
THUNDER BAY    PTSUNNY   70  61  73 SW8       29.97F
SIOUX LOOKOUT  PTSUNNY   72  54  53 VRB7      30.04S
TORONTO        CLOUDY    68  52  56 W13       29.93R
BIG TROUT LK   MOSUNNY   70  45  40 N9        30.06F
PICKLE LAKE    PTSUNNY   70  46  43 NE7       30.05F
DRYDEN         PTSUNNY   75  55  50 NW8G18    30.02F
KENORA         CLOUDY    77  54  44 N8        30.06F
$$
                *** MANITOBA***

CITY           SKY/WX    TMP DP  RH WIND       PRES   REMARKS
BRANDON        PTSUNNY   77  54  44 N7        30.17S
DAUPHIN        NOT AVBL
ISLAND LAKE    PTSUNNY   75  59  57 SE6       30.08F
PILOT MOUND      N/A     73  54  49 N6          N/A
THE PAS        MOSUNNY   81  55  41 SW5       30.10F
THOMPSON       PTSUNNY   81  57  44 NE3       30.08S
WINNIPEG       MOSUNNY   77  57  50 NW12      30.12F
LYNN LAKE      MOSUNNY   84  48  28 NW5       30.10S
CHURCHILL      SUNNY     64  54  68 NE8       30.12F
GILLAM         MOSUNNY   73  50  43 NE6       30.11S
$$
                ***SASKATCHEWAN***

CITY           SKY/WX    TMP DP  RH WIND       PRES   REMARKS
ESTEVAN        MOSUNNY   79  57  47 NW5       30.19S
KINDERSLEY     MOSUNNY   81  66  61 SE9       30.18F
LLOYDMINSTER   MOSUNNY   79  59  50 S14G21    30.17S
PRINCE ALBERT  MOSUNNY   79  59  50 SW5       30.18S
REGINA         MOSUNNY   79  57  47 NW8       30.20F
YORKTON        MOSUNNY   75  54  46 N5        30.20S
N. BATTLEFORD    N/A     81  63  54 E9        30.21S
LA RONGE       MOSUNNY   84  50  30 S8        30.15F
SASKATOON      MOSUNNY   81  57  44 N7        30.21S
SWIFT CURRENT  SUNNY     82  50  32 S7        30.20S
$$
NOTE: THESE ARE AUTOMATED STATIONS WITH LIMITED QUALITY CONTROL
      "FAIR" INDICATES FEW OR NO CLOUDS BELOW 12,000 FEET WITH NO
      SIGNIFICANT WEATHER AND/OR OBSTRUCTIONS TO VISIBILITY.
      SKY/WX - SKY CONDITION AND SIGNIFICANT WEATHER.
      TMP - AIR TEMPERATURE.    DP   - DEWPOINT TEMPERATURE.
      RH  - RELATIVE HUMIDITY.  PRES - PRESSURE.
      HX  - HEAT INDEX.         WCI  - WIND CHILL INDEX.
$


USA.gov is the U.S. government's official web portal to all federal, state and local government web resources and services.